Location: Gull Harbor
(47.1000°N, 122.9000°W)
Time: 20:04:12
(UTC-07:00)

STARLINK-2657 - Pass Details

Date: 01 August 2021
Orbit: 546 x 548 km, 53.1° (Epoch: 24 September)

Event Time Altitude Azimuth Distance (km) Brightness Sun altitude
Rises 21:22:11 0° 293° (WNW) 2,725 9.2 -6.4°
Reaches altitude 10° 21:24:46 10° 278° (W) 1,827 7.4 -6.8°
Maximum altitude 21:28:01 22° 226° (SW) 1,212 5.5 -7.2°
Drops below altitude 10° 21:31:15 10° 174° (S) 1,816 5.9 -7.7°
Enters shadow 21:32:41 - 165° (SSE) 2,295 6.3 -7.9°
